Temperature
12 12 12 12 12 11 11 11 11 11 11 12 12 12 12 11 11 11 10 10 10 10 10 10 10 10 10 10 10 10 10 11 11 11 11 11 11 11 11 12 12 12 12
12 12 12 12 11 11 11 11 11 11 12 11 11 11 11 10 10 9 9 9 9 9 9 9 10 10 10 10 10 10 10 10 10 10 11 11 11 11 11 11 11 11 11
12 12 12 11 11 11 11 11 11 11 11 11 10 10 10 9 9 9 8 8 8 9 9 9 9 10 10 10 10 10 10 10 10 10 10 10 10 10 10 10 10 11 11
12 12 12 11 11 11 11 11 11 11 11 10 10 9 9 9 9 8 8 8 8 9 9 9 9 9 9 10 10 10 10 10 10 10 10 10 9 9 9 9 9 9 9
12 12 11 11 11 11 11 11 10 10 9 9 9 9 9 9 8 8 8 8 8 9 9 9 9 9 9 9 9 9 9 9 9 8 8 8 8 8 7 7 7 7 7
12 11 11 11 11 10 10 10 9 9 8 8 8 8 9 9 8 8 8 8 8 8 8 8 8 8 8 8 8 8 8 8 8 7 6 6 6 6 6 5 5 5 5
12 11 11 11 10 10 10 9 8 8 7 7 7 8 8 8 8 8 7 7 7 8 7 7 7 7 7 7 7 7 7 7 6 5 4 4 4 4 4 3 3 4 4
11 11 11 10 10 10 9 8 8 7 6 6 5 5 6 7 7 7 7 7 7 6 6 6 6 6 6 6 6 6 6 5 4 3 2 1 1 1 2 2 2 3 3
11 11 10 10 10 9 9 8 7 6 5 5 4 4 3 3 3 4 5 5 4 4 5 5 5 5 5 4 4 4 4 3 2 -0 -0 -0 -0 0 1 1 2 2 2
11 10 10 9 9 8 8 7 6 5 5 4 3 3 2 1 1 1 2 3 3 3 4 4 4 4 4 4 3 2 2 0 -1 -2 -2 -1 -1 -0 0 0 1 1 1
10 10 9 9 8 8 7 6 5 5 4 3 3 2 2 1 0 -2 -2 0 2 3 3 2 2 2 2 2 1 -0 -1 -3 -3 -3 -3 -2 -2 -1 -1 -0 -0 0 0
10 9 9 8 8 7 6 5 5 4 3 3 2 2 1 -0 -1 -2 -3 -3 -3 -0 1 1 1 1 0 -0 -1 -2 -3 -4 -4 -4 -4 -3 -3 -2 -2 -2 -1 -1 -1
9 8 8 7 7 6 5 4 4 3 3 2 2 1 1 -0 -1 -2 -3 -4 -4 -3 -2 -3 -3 -2 -2 -3 -3 -4 -4 -5 -5 -5 -5 -4 -4 -3 -3 -3 -3 -2 -2
8 8 7 6 6 5 4 3 3 2 2 2 1 1 0 -0 -1 -3 -4 -5 -6 -5 -5 -5 -5 -5 -6 -6 -6 -6 -6 -6 -6 -6 -5 -5 -5 -4 -4 -4 -4 -4 -4
7 7 6 6 5 4 3 3 2 2 2 1 1 1 0 -1 -2 -3 -4 -5 -7 -7 -6 -6 -7 -7 -7 -8 -8 -8 -8 -7 -7 -7 -6 -6 -6 -5 -5 -5 -5 -5 -5
7 6 6 5 4 3 2 2 2 2 1 1 1 0 -0 -2 -3 -4 -5 -6 -7 -7 -8 -8 -8 -7 -8 -8 -8 -8 -8 -8 -7 -7 -7 -7 -6 -6 -6 -6 -6 -6 -6
6 5 5 4 3 2 2 2 1 1 1 1 0 -0 -1 -3 -4 -5 -6 -7 -7 -8 -8 -8 -8 -8 -8 -8 -8 -8 -8 -8 -8 -8 -8 -7 -7 -7 -7 -7 -7 -6 -6
5 5 4 3 2 2 1 1 1 1 1 0 -1 -2 -3 -4 -5 -6 -7 -7 -8 -8 -9 -9 -8 -8 -8 -8 -8 -8 -8 -8 -8 -9 -8 -8 -8 -8 -8 -8 -7 -7 -7
5 4 3 2 1 1 1 1 0 0 -0 -1 -2 -3 -5 -6 -6 -7 -8 -8 -8 -9 -9 -9 -9 -9 -8 -8 -8 -9 -9 -9 -9 -9 -9 -9 -9 -9 -8 -8 -8 -8 -8
4 3 2 1 1 1 1 0 -0 -1 -1 -2 -4 -5 -6 -6 -7 -8 -8 -9 -9 -9 -9 -9 -9 -8 -9 -9 -9 -9 -10 -10 -10 -10 -10 -10 -10 -9 -9 -9 -9 -9 -9
3 2 1 1 1 0 0 -1 -1 -2 -3 -4 -5 -6 -7 -7 -8 -9 -9 -9 -9 -9 -9 -8 -9 -9 -9 -9 -10 -10 -11 -10 -10 -10 -10 -10 -10 -11 -11 -10 -10 -10 -10
1 1 1 0 0 -0 -1 -2 -3 -4 -5 -6 -7 -7 -8 -8 -8 -9 -9 -9 -9 -9 -9 -9 -9 -10 -10 -10 -11 -11 -10 -10 -10 -10 -11 -11 -11 -11 -11 -10 -10 -10 -10
1 0 0 -0 -1 -1 -2 -2 -4 -6 -6 -7 -7 -8 -8 -8 -9 -9 -9 -9 -9 -9 -9 -10 -10 -11 -11 -11 -10 -10 -10 -11 -11 -11 -11 -11 -11 -11 -11 -11 -10 -10 -10
0 -0 -0 -1 -1 -2 -3 -3 -5 -6 -7 -8 -8 -8 -9 -9 -9 -10 -9 -9 -9 -9 -10 -10 -11 -10 -10 -10 -10 -11 -11 -11 -11 -11 -11 -11 -11 -11 -11 -10 -9 -9 -10
-0 -1 -1 -2 -2 -3 -3 -4 -6 -7 -8 -8 -9 -9 -10 -10 -10 -9 -9 -10 -10 -10 -10 -10 -10 -10 -10 -10 -10 -11 -11 -12 -12 -11 -11 -12 -11 -11 -11 -10 -9 -9 -9
-1 -1 -2 -2 -3 -4 -4 -5 -7 -8 -9 -9 -9 -9 -10 -10 -10 -9 -10 -10 -10 -10 -10 -10 -10 -9 -9 -9 -9 -10 -11 -12 -12 -12 -10 -11 -11 -12 -11 -9 -9 -8 -8
Wind_Speed
4 5 5 8 9 9 8 6 6 6 6 7 9 8 8 9 10 11 12 17 19 19 19 19 18 18 17 17 17 18 17 17 16 15 13 12 11 11 10 10 10 11 11
7 6 5 6 7 8 8 7 6 5 4 4 5 6 7 7 9 11 12 14 18 20 20 19 19 17 16 16 16 16 17 17 16 15 14 14 13 12 12 12 12 12 12
11 8 6 5 6 8 9 7 6 6 5 5 5 5 5 5 7 8 9 11 13 17 19 19 19 17 16 16 16 17 16 16 16 16 15 15 15 14 14 14 14 14 14
13 10 6 6 7 8 6 5 5 5 6 6 5 4 3 3 4 6 6 8 10 12 15 17 19 17 16 16 17 17 17 17 16 16 16 16 16 16 16 16 16 16 17
14 12 7 6 8 7 4 5 6 5 5 7 6 4 3 2 1 3 3 4 6 10 12 13 17 16 15 17 18 19 19 18 17 16 17 17 18 18 18 18 19 19 19
14 13 8 8 8 6 6 5 6 6 4 5 6 6 4 2 2 1 1 1 4 9 12 11 14 14 15 18 20 20 20 19 18 17 18 19 20 20 20 21 21 21 21
14 12 7 6 6 7 6 6 4 6 6 5 5 6 4 3 2 3 1 2 2 7 12 12 14 13 12 18 20 21 21 20 19 19 20 21 22 23 23 23 23 23 24
13 12 7 7 6 6 7 7 5 3 4 5 4 4 5 6 5 3 4 3 4 6 7 14 15 13 15 15 17 21 21 19 20 21 23 24 24 24 25 25 25 26 26
14 13 10 7 6 7 6 6 6 5 4 4 4 4 3 4 5 5 5 4 5 5 6 9 12 15 18 16 16 18 19 20 21 23 25 26 27 27 27 27 27 27 28
12 12 11 9 6 6 6 5 5 3 3 3 3 2 1 3 4 6 5 4 5 7 7 9 10 16 18 16 17 19 20 22 24 26 28 29 29 28 28 28 29 29 29
9 11 11 9 6 5 6 5 4 4 2 1 1 2 2 2 4 4 7 6 6 5 6 9 8 11 15 15 14 16 22 25 27 28 29 30 30 30 30 30 30 30 30
6 7 9 8 6 5 5 4 4 3 2 0 1 2 2 2 3 4 6 11 12 7 9 9 8 6 11 12 14 22 26 28 28 29 30 31 31 32 31 32 31 31 31
4 6 5 5 4 5 5 4 3 3 1 2 2 2 3 4 3 4 6 11 13 8 6 5 5 6 11 12 15 26 28 29 30 31 32 33 34 33 33 33 33 33 33
5 6 6 6 6 5 4 3 2 2 2 3 4 4 4 5 4 4 4 8 13 7 4 6 5 6 7 12 20 28 22 29 32 34 35 36 35 34 34 34 34 35 35
6 6 6 5 5 4 3 3 2 3 3 3 5 5 4 5 5 5 5 5 6 12 16 6 4 4 7 13 19 19 19 28 34 36 36 36 35 34 34 35 37 38 38
7 7 6 5 4 3 3 3 2 3 4 4 4 6 6 5 6 5 5 6 7 12 16 8 10 10 10 13 23 22 21 32 33 34 34 34 33 34 37 39 40 40 39
7 7 6 5 4 3 3 3 4 4 5 6 6 6 8 8 6 6 6 7 8 10 16 18 13 11 11 12 14 15 18 16 19 28 30 33 36 38 39 39 38 37 36
7 6 6 5 4 4 4 4 5 6 6 7 8 8 8 8 8 7 7 9 10 10 14 20 18 14 14 13 14 13 14 15 11 24 33 36 37 37 37 36 36 35 35
7 6 6 5 4 4 4 4 5 6 6 7 7 8 8 8 9 9 10 10 10 11 11 16 19 16 14 13 13 14 13 11 15 22 28 30 32 34 35 36 36 36 36
7 6 5 3 3 4 5 5 6 6 5 6 6 7 8 9 11 11 11 10 10 11 12 15 16 15 14 12 12 14 15 11 14 15 21 24 29 32 34 35 35 35 35
6 5 4 3 4 4 5 7 6 5 4 6 7 8 9 14 16 14 14 11 12 13 14 15 16 16 15 14 15 15 18 17 14 12 14 15 14 14 17 25 30 32 34
5 4 4 4 5 4 10 14 11 5 5 7 9 9 10 12 16 22 25 24 22 18 16 14 15 17 18 17 16 17 18 19 18 8 11 16 13 16 14 12 25 33 33
3 4 4 4 5 7 13 15 16 8 5 8 9 10 11 13 18 13 20 24 20 23 24 18 17 18 19 18 19 21 18 19 20 15 15 19 14 16 15 18 31 33 34
3 3 3 5 5 8 14 16 18 8 7 9 10 10 12 12 14 18 17 14 11 13 18 15 13 16 17 16 17 19 19 19 18 14 12 17 17 17 18 15 28 33 34
3 2 3 5 6 8 14 17 18 7 7 9 10 10 12 11 22 27 18 15 15 14 19 23 24 24 28 28 22 15 15 15 18 16 9 11 15 17 17 17 20 29 30
2 4 5 5 6 8 13 18 19 7 8 8 8 8 16 20 25 27 16 12 15 16 16 17 18 20 17 19 23 14 13 15 16 13 7 6 12 13 10 9 9 12 16
Wind_Direction
117 97 85 78 71 71 72 71 65 55 45 39 37 34 26 27 34 39 40 47 47 41 38 33 28 26 24 25 27 26 22 19 15 12 8 4 358 351 345 340 334 327 321
122 108 93 81 75 75 77 75 65 52 41 35 32 31 31 35 42 45 46 49 49 41 35 29 22 18 16 14 12 11 9 5 360 356 352 347 343 338 332 326 322 319 317
121 112 99 87 79 78 75 68 57 46 35 24 23 24 32 41 51 52 54 59 58 43 33 27 19 12 9 6 2 358 354 350 345 341 337 332 327 322 317 313 310 308 305
119 108 98 88 82 76 69 62 41 37 24 10 355 2 21 26 52 57 60 69 70 52 34 25 16 5 0 355 351 346 341 337 333 330 326 322 317 312 307 304 301 298 295
112 106 99 93 87 71 52 56 46 39 22 358 337 341 5 344 36 55 59 69 66 51 36 20 8 357 351 345 340 336 331 328 324 321 320 317 313 309 304 299 296 293 290
110 106 98 90 84 71 53 49 50 38 27 353 332 328 327 320 286 2 32 37 43 38 28 10 356 342 340 338 333 327 323 320 316 316 315 313 310 306 301 298 294 291 288
110 105 100 86 78 76 64 49 47 33 17 2 357 336 334 332 299 274 304 293 356 20 16 357 341 326 319 327 325 320 317 313 311 311 311 309 306 302 299 295 292 289 286
106 102 99 95 88 85 66 51 48 43 16 24 28 359 346 337 341 333 327 308 352 8 359 340 325 315 310 308 308 314 311 305 306 307 307 306 303 298 295 292 289 287 284
100 102 101 98 87 85 78 64 56 61 20 5 38 51 10 312 311 311 314 321 340 346 327 316 311 311 305 299 298 303 302 300 302 304 304 302 299 295 292 290 287 285 283
98 99 98 93 85 81 77 67 66 63 57 14 354 20 250 247 288 308 300 302 311 311 299 309 305 297 293 291 292 301 301 296 298 301 301 299 296 293 291 289 287 286 284
90 93 92 87 81 79 77 66 59 52 63 71 339 326 318 295 249 266 292 302 303 279 286 289 286 288 287 286 286 292 298 298 299 299 299 297 295 293 291 289 288 288 287
85 84 87 85 82 77 70 60 53 44 39 11 270 251 249 273 283 277 287 306 307 297 289 281 279 277 283 287 294 304 304 301 299 298 297 296 294 292 292 292 291 289 288
99 90 87 82 75 70 67 58 45 17 349 323 292 266 252 249 249 259 289 306 305 298 273 256 259 276 289 300 309 306 303 301 300 299 297 295 294 293 292 291 290 289 288
114 107 94 83 74 66 61 49 29 340 329 309 292 280 270 262 248 252 273 306 313 303 257 267 269 257 279 297 298 300 299 298 297 296 295 294 293 292 291 291 290 289 288
111 100 91 83 70 58 44 28 352 321 315 291 280 274 262 256 249 251 255 265 289 306 309 285 266 272 279 285 289 291 284 290 294 294 293 292 292 291 290 290 289 288 286
101 98 88 78 61 43 20 4 330 315 313 296 277 276 270 260 254 251 250 256 258 278 291 290 295 292 284 293 297 296 290 293 295 293 291 290 290 291 290 289 288 286 283
101 95 87 73 53 31 4 354 329 316 313 304 300 291 281 275 265 258 256 261 263 267 284 295 295 294 287 286 291 284 282 279 281 286 289 290 289 289 288 287 286 285 283
98 93 83 68 44 16 354 345 326 322 311 306 303 301 295 297 280 271 270 268 269 267 278 293 300 302 296 292 289 286 295 293 283 287 290 291 291 291 290 288 287 285 284
94 84 78 63 28 355 340 326 312 307 305 305 307 305 300 296 288 281 276 276 276 282 282 291 297 299 297 297 298 297 291 284 286 291 294 293 291 290 289 288 287 287 286
93 84 77 56 14 341 324 311 307 304 306 311 306 298 294 291 286 284 286 279 287 294 292 291 294 298 301 301 302 305 304 292 291 293 291 289 289 290 289 289 288 287 286
92 88 73 38 3 338 320 316 307 297 294 298 295 290 290 300 303 304 306 307 304 299 299 299 302 306 307 310 308 307 304 302 293 287 288 287 286 282 282 282 283 283 282
85 69 47 16 352 336 325 327 323 298 280 292 297 293 293 296 303 312 311 307 305 305 307 307 308 305 304 305 305 303 303 303 301 295 288 293 289 286 283 277 280 282 281
75 51 21 353 329 319 329 327 322 322 296 293 293 296 304 308 313 299 299 304 305 306 307 305 301 300 300 302 302 303 302 300 299 302 301 296 294 289 287 283 286 284 283
61 34 346 333 326 324 331 325 322 327 296 286 286 289 293 295 300 306 306 308 303 301 301 300 292 293 296 299 300 302 301 299 296 293 290 292 295 292 292 286 286 284 283
39 353 328 331 326 318 326 324 324 303 291 289 289 291 302 301 306 313 317 313 310 308 309 306 304 305 306 307 307 307 305 305 303 302 293 284 291 296 292 286 281 283 284
11 340 330 321 312 305 318 325 324 303 298 299 295 290 308 313 313 319 320 315 314 311 311 313 312 308 303 301 306 305 303 301 301 302 289 280 295 305 300 274 265 276 281
Height
1513 1514 1515 1515 1515 1514 1514 1513 1512 1510 1509 1507 1505 1503 1502 1500 1498 1496 1495 1494 1494 1493 1491 1490 1489 1488 1487 1485 1483 1482 1481 1480 1480 1479 1479 1478 1478 1477 1477 1476 1476 1475 1475
1513 1513 1514 1513 1513 1513 1512 1511 1510 1508 1506 1505 1502 1500 1498 1496 1494 1493 1492 1491 1491 1490 1489 1487 1486 1485 1484 1482 1480 1478 1477 1476 1475 1474 1474 1473 1472 1471 1471 1470 1470 1469 1469
1511 1512 1512 1512 1512 1511 1510 1508 1507 1505 1504 1502 1500 1497 1495 1493 1492 1490 1490 1489 1489 1488 1486 1485 1483 1482 1480 1478 1476 1474 1472 1471 1470 1469 1468 1467 1466 1465 1464 1463 1462 1462 1462
1510 1510 1511 1510 1510 1509 1508 1506 1505 1502 1500 1498 1497 1495 1493 1491 1489 1488 1487 1487 1486 1485 1483 1482 1480 1478 1476 1473 1471 1469 1467 1465 1464 1462 1461 1459 1458 1457 1456 1455 1454 1453 1453
1508 1509 1509 1509 1508 1508 1506 1504 1501 1499 1497 1495 1494 1492 1490 1488 1487 1486 1485 1484 1484 1482 1481 1478 1476 1474 1471 1469 1466 1463 1461 1459 1457 1455 1453 1451 1450 1448 1447 1446 1445 1445 1444
1506 1507 1508 1508 1507 1506 1503 1501 1499 1496 1494 1492 1490 1489 1486 1485 1484 1484 1483 1482 1481 1479 1477 1474 1472 1469 1466 1463 1460 1458 1455 1453 1450 1448 1446 1444 1442 1440 1439 1438 1437 1436 1435
1504 1505 1506 1506 1505 1503 1501 1499 1497 1494 1492 1489 1487 1485 1483 1482 1482 1481 1480 1479 1477 1475 1472 1469 1466 1463 1460 1457 1454 1451 1448 1445 1443 1441 1438 1436 1434 1432 1430 1429 1428 1427 1426
1503 1503 1504 1503 1502 1500 1498 1497 1495 1493 1490 1488 1485 1482 1481 1480 1478 1479 1477 1475 1472 1469 1467 1464 1461 1458 1454 1450 1447 1444 1440 1437 1435 1433 1430 1428 1426 1424 1422 1420 1419 1418 1417
1501 1501 1501 1500 1499 1498 1496 1495 1493 1491 1490 1488 1486 1485 1482 1478 1475 1469 1469 1467 1464 1462 1459 1456 1453 1451 1447 1443 1439 1435 1432 1429 1426 1424 1422 1419 1417 1415 1413 1411 1410 1408 1407
1498 1499 1498 1498 1497 1496 1494 1493 1491 1490 1488 1487 1485 1484 1483 1480 1475 1466 1461 1460 1457 1454 1451 1448 1445 1442 1440 1435 1431 1427 1423 1421 1418 1415 1413 1410 1408 1405 1403 1401 1400 1398 1396
1496 1496 1496 1495 1494 1494 1493 1491 1490 1488 1486 1485 1483 1481 1479 1476 1473 1467 1456 1450 1447 1445 1443 1440 1437 1434 1431 1427 1423 1419 1415 1413 1410 1406 1403 1400 1398 1395 1393 1391 1388 1386 1385
1494 1494 1494 1493 1492 1491 1490 1489 1488 1486 1484 1482 1480 1477 1475 1472 1469 1464 1455 1445 1438 1434 1433 1431 1429 1426 1423 1419 1415 1411 1407 1403 1400 1397 1394 1391 1388 1385 1382 1379 1376 1374 1372
1492 1492 1492 1491 1490 1489 1488 1487 1485 1484 1482 1480 1477 1474 1472 1468 1465 1461 1454 1443 1432 1425 1421 1419 1419 1417 1414 1410 1406 1402 1398 1394 1391 1387 1384 1380 1377 1374 1370 1367 1364 1362 1360
1489 1490 1489 1488 1487 1486 1485 1483 1482 1481 1478 1476 1473 1470 1467 1464 1461 1456 1451 1442 1429 1418 1415 1412 1408 1406 1405 1402 1398 1394 1389 1386 1382 1378 1374 1370 1366 1362 1359 1355 1352 1349 1347
1487 1487 1487 1486 1484 1483 1481 1480 1479 1477 1474 1472 1468 1465 1462 1459 1455 1451 1447 1442 1435 1420 1406 1402 1401 1399 1397 1393 1389 1386 1382 1377 1373 1369 1364 1359 1355 1351 1347 1343 1340 1337 1334
1484 1484 1483 1482 1481 1479 1478 1477 1475 1472 1470 1467 1464 1460 1457 1452 1448 1445 1441 1437 1432 1424 1409 1397 1394 1391 1388 1385 1382 1378 1373 1368 1364 1359 1354 1349 1344 1340 1335 1331 1327 1323 1320
1481 1481 1480 1479 1478 1476 1474 1473 1470 1468 1465 1462 1459 1454 1450 1446 1441 1437 1433 1429 1425 1419 1407 1393 1389 1384 1380 1376 1371 1367 1363 1357 1352 1348 1343 1339 1334 1329 1323 1318 1313 1309 1306
1478 1477 1476 1475 1474 1473 1471 1468 1466 1463 1460 1456 1452 1448 1443 1439 1434 1430 1426 1421 1416 1411 1403 1391 1382 1377 1372 1368 1362 1357 1353 1348 1343 1338 1333 1327 1322 1316 1311 1306 1301 1297 1294
1474 1474 1473 1472 1471 1469 1467 1464 1461 1458 1454 1450 1445 1441 1436 1431 1426 1422 1418 1413 1408 1403 1398 1389 1378 1371 1365 1360 1354 1348 1343 1337 1332 1326 1321 1315 1309 1304 1298 1293 1289 1285 1281
1471 1470 1469 1468 1467 1465 1463 1459 1456 1452 1448 1444 1439 1435 1430 1425 1419 1415 1410 1406 1402 1396 1389 1382 1373 1365 1359 1352 1347 1339 1331 1325 1319 1315 1309 1303 1298 1292 1286 1281 1276 1272 1268
1467 1467 1466 1465 1463 1461 1458 1454 1450 1446 1441 1437 1433 1428 1423 1419 1415 1410 1406 1401 1395 1388 1382 1375 1367 1360 1353 1346 1339 1331 1323 1315 1307 1305 1297 1290 1285 1278 1272 1267 1263 1258 1254
1464 1464 1463 1461 1459 1456 1453 1449 1445 1440 1436 1431 1426 1422 1417 1413 1408 1404 1399 1394 1390 1383 1376 1369 1361 1354 1346 1340 1332 1325 1317 1308 1297 1295 1289 1280 1276 1268 1261 1256 1250 1246 1243
1462 1461 1459 1457 1455 1451 1448 1444 1439 1435 1430 1426 1421 1416 1411 1406 1402 1395 1389 1385 1381 1376 1372 1365 1355 1347 1340 1334 1327 1318 1311 1303 1294 1287 1282 1270 1264 1257 1250 1244 1239 1235 1230
1459 1458 1456 1453 1450 1446 1442 1438 1434 1429 1425 1421 1416 1411 1405 1399 1394 1389 1383 1377 1371 1366 1361 1355 1349 1342 1335 1328 1322 1314 1305 1295 1286 1280 1276 1265 1254 1247 1238 1231 1226 1221 1217
1456 1454 1452 1449 1445 1441 1437 1433 1429 1423 1419 1415 1410 1406 1400 1394 1388 1384 1378 1370 1363 1356 1352 1347 1342 1336 1328 1322 1315 1307 1298 1290 1278 1269 1267 1259 1247 1237 1226 1218 1213 1208 1204
1453 1451 1448 1445 1441 1436 1432 1428 1423 1418 1413 1408 1404 1399 1395 1389 1383 1378 1371 1364 1356 1349 1344 1337 1332 1326 1320 1314 1308 1302 1294 1285 1275 1263 1256 1251 1241 1233 1218 1206 1202 1197 1191